Dewpoint
3 5 6 8 9 9 9 10 9 8 9 9 9 8 9 8 9 10 10 11 11 10 10 7 6 1 7 6 6 6 6 6
3 5 7 8 9 9 9 9 9 9 9 9 9 9 9 9 8 9 9 9 10 10 9 9 6 4 7 6 5 5 5 5
4 6 7 8 8 9 9 9 8 9 10 9 9 8 9 8 9 10 10 10 10 10 8 6 5 8 7 6 4 4 5 5
5 6 7 8 9 9 9 9 7 9 9 10 9 8 8 8 8 9 9 9 9 8 7 9 8 8 7 5 4 4 4 4
5 7 8 8 9 9 9 8 6 8 9 9 9 8 9 8 9 9 9 9 8 8 7 8 7 8 7 5 3 1 1 1
6 6 7 8 9 9 9 8 7 7 8 9 8 9 8 8 8 8 8 7 7 8 7 7 5 5 5 2 1 1 2 1
2 5 7 9 9 9 9 8 7 9 9 9 9 9 8 8 8 7 8 7 7 7 6 5 5 4 3 1 2 2 0 2
7 8 9 9 9 9 9 8 7 9 9 9 9 8 8 8 8 7 7 7 7 5 4 4 3 2 2 3 3 1 1 3
7 8 8 9 9 9 9 8 5 9 9 8 8 8 8 8 7 7 6 6 4 4 5 5 3 3 3 2 3 3 3 6
7 7 7 8 8 8 8 8 5 8 9 9 8 8 8 8 8 7 5 4 4 3 4 5 4 2 2 3 5 3 5 5
4 5 7 7 7 7 8 8 6 4 9 9 9 8 8 8 8 7 5 4 4 3 3 3 3 2 3 3 3 4 4 4
1 6 6 7 7 7 8 8 7 6 7 9 9 9 9 8 8 8 7 6 4 4 2 2 2 1 3 4 3 3 4 5
2 3 6 7 7 8 8 8 8 6 8 8 9 9 8 8 8 8 7 7 6 4 3 3 3 3 3 4 2 3 5 5
-4 5 6 7 7 8 8 8 8 7 7 8 8 9 9 9 9 8 8 7 7 6 4 3 2 0 1 1 1 2 3 5
0 -0 6 8 7 7 8 8 8 8 8 9 9 8 8 9 9 8 8 8 8 8 7 7 7 3 -1 -1 1 0 2 5
2 3 2 1 6 9 8 8 8 8 8 7 8 9 9 8 7 8 8 9 8 8 8 8 8 6 4 -0 -1 0 2 4
3 3 4 6 6 4 7 9 8 8 9 8 7 8 9 9 9 8 8 8 8 8 9 9 8 7 7 6 4 2 3 3
4 4 5 6 6 5 4 6 9 9 8 9 9 8 7 9 10 10 9 9 9 9 8 9 9 9 8 8 7 7 8 8
3 4 4 4 5 4 5 5 6 8 10 9 9 9 9 8 9 9 10 10 10 10 9 9 9 9 9 9 9 9 8 8
Wind_Speed
28 24 23 19 17 19 17 15 13 14 17 16 13 12 13 12 21 28 30 35 40 38 44 43 39 43 34 39 34 29 26 28
32 29 28 26 23 23 21 20 17 17 17 15 12 11 9 8 11 18 28 31 35 52 56 51 45 42 35 39 34 30 28 25
36 35 32 30 28 24 24 20 18 17 18 16 16 10 9 13 21 28 37 46 49 54 59 49 47 39 39 38 38 35 32 29
41 39 35 31 27 27 25 21 17 18 20 18 15 12 15 21 25 29 35 42 45 46 44 38 42 39 39 39 38 35 34 32
44 42 37 34 30 27 23 20 19 21 23 21 21 17 24 26 31 31 33 36 39 40 43 41 42 38 35 36 34 34 36 32
45 43 39 36 30 26 24 21 20 24 25 24 22 20 23 32 34 34 33 37 42 39 34 39 40 41 39 35 36 35 32 33
39 43 39 35 29 25 24 22 21 25 26 25 23 25 28 31 34 36 40 38 36 31 35 35 33 35 39 39 37 34 33 33
44 43 39 35 31 28 26 25 24 29 28 28 26 23 28 26 31 40 42 38 36 39 40 38 36 38 38 36 34 32 33 32
44 43 39 35 32 29 27 26 26 32 32 30 28 25 25 25 28 35 42 41 41 40 37 39 42 42 38 36 35 32 32 32
40 40 37 37 31 29 29 28 27 33 34 31 30 28 29 29 31 34 41 43 40 43 43 38 38 40 41 39 36 36 38 35
37 38 40 36 31 29 27 26 27 28 36 33 32 30 30 30 31 36 43 45 41 41 45 46 44 41 40 38 42 41 41 41
14 38 38 37 32 31 28 27 27 29 30 35 34 35 33 29 33 34 36 45 46 41 45 46 51 49 47 45 44 46 44 42
10 25 34 36 34 33 31 28 27 29 30 29 37 38 37 34 34 33 37 38 43 46 45 47 48 49 49 50 50 49 48 48
23 14 30 34 34 32 31 29 28 28 31 31 30 37 41 41 39 37 36 38 40 46 49 50 50 50 52 53 55 55 55 54
30 34 10 28 33 30 31 31 30 26 30 32 34 34 36 42 43 41 41 41 41 44 48 51 53 54 55 58 58 58 58 58
26 27 25 19 4 18 32 30 31 29 28 35 37 36 35 34 39 44 44 45 45 45 47 47 50 54 55 58 62 61 61 61
22 22 24 25 23 16 6 31 32 31 32 33 36 37 37 40 39 40 42 45 47 46 47 49 49 52 54 56 57 60 61 62
20 18 20 22 20 17 14 5 13 34 35 34 35 40 41 41 41 40 43 45 45 49 49 48 50 52 53 53 54 55 56 56
12 12 15 20 22 21 16 12 10 5 33 37 34 36 40 43 42 45 46 46 46 46 49 50 52 55 53 52 52 52 52 53
Wind_Direction
203 201 200 197 207 209 217 226 233 220 214 215 219 226 221 214 200 207 212 214 214 212 188 171 172 169 173 172 176 177 173 167
201 199 195 187 199 211 225 224 231 229 204 195 196 208 226 246 218 202 205 213 208 192 174 171 166 174 178 176 172 171 173 169
195 193 193 197 206 215 214 222 238 224 216 206 198 197 206 208 210 205 201 196 190 179 174 177 169 176 178 177 171 172 170 171
190 187 193 196 203 204 215 228 232 215 212 203 187 193 189 173 168 182 183 186 179 170 170 172 173 172 177 178 176 176 175 178
190 186 189 198 204 209 220 223 223 209 203 203 197 195 186 177 174 175 175 174 178 182 181 179 182 178 177 182 180 186 188 192
185 190 198 200 204 211 216 217 212 200 205 207 202 194 193 185 182 179 178 177 177 180 195 196 188 188 183 188 190 197 202 198
194 192 195 194 200 210 213 215 210 200 204 207 210 196 197 201 202 190 185 186 192 206 195 187 187 189 192 197 200 203 207 206
181 183 188 191 197 208 209 213 206 199 203 205 208 204 204 206 208 199 199 204 204 195 194 195 192 191 199 209 215 214 210 212
180 186 188 194 200 208 212 214 211 198 203 207 207 214 213 212 211 214 209 205 197 195 198 207 205 205 213 216 218 217 217 218
177 185 192 196 203 214 215 214 214 202 206 208 210 212 217 213 213 215 211 206 204 202 204 207 210 213 216 218 220 226 224 222
179 190 193 200 208 216 214 219 220 208 206 211 212 214 219 218 216 217 216 215 215 213 212 214 215 217 219 224 229 228 230 227
195 190 195 200 207 212 213 217 219 212 210 209 211 219 217 220 222 220 224 224 225 224 220 218 222 224 227 228 230 229 232 233
99 186 194 198 205 210 211 214 220 225 219 218 212 212 221 222 224 227 226 230 232 228 228 225 225 226 228 228 228 231 233 236
21 178 193 198 203 212 215 216 221 226 228 224 222 216 216 224 224 225 228 229 234 235 233 235 233 232 231 229 231 234 239 243
57 47 182 200 204 216 223 220 222 222 230 232 232 229 226 222 226 227 230 231 232 235 235 239 240 237 235 235 235 238 242 244
37 41 35 53 85 222 226 230 227 221 223 233 239 239 238 236 231 231 230 232 235 236 238 241 239 240 241 239 239 242 244 248
39 26 30 32 32 31 301 233 238 234 228 228 234 242 242 239 237 235 234 234 235 237 238 239 238 237 239 240 242 245 248 250
41 31 19 23 22 17 18 23 249 240 247 240 231 233 240 243 240 238 239 237 236 239 240 241 241 241 243 242 242 244 249 251
42 31 14 358 347 353 353 3 13 281 242 247 249 240 237 236 238 240 241 241 240 238 241 240 243 247 248 248 247 244 245 248
Height
1434 1436 1439 1443 1446 1450 1454 1456 1457 1459 1461 1462 1463 1463 1465 1466 1469 1472 1476 1480 1485 1490 1496 1502 1511 1516 1524 1532 1536 1543 1546 1549
1427 1431 1434 1438 1441 1445 1449 1452 1453 1455 1456 1458 1460 1461 1463 1462 1463 1467 1471 1475 1481 1482 1488 1498 1507 1514 1521 1529 1534 1540 1545 1549
1421 1425 1429 1432 1436 1441 1446 1449 1451 1452 1454 1456 1457 1459 1461 1462 1462 1463 1467 1469 1474 1480 1485 1497 1504 1512 1521 1526 1531 1537 1542 1546
1414 1419 1423 1427 1431 1435 1441 1444 1447 1449 1452 1455 1456 1458 1460 1462 1464 1466 1469 1471 1474 1481 1489 1498 1504 1512 1518 1524 1530 1535 1540 1543
1406 1414 1419 1422 1427 1432 1437 1441 1443 1446 1450 1453 1454 1456 1460 1463 1466 1468 1471 1477 1481 1487 1493 1498 1503 1509 1516 1523 1529 1533 1536 1538
1401 1407 1412 1417 1422 1427 1432 1437 1440 1443 1447 1450 1453 1456 1461 1465 1467 1471 1474 1477 1482 1488 1493 1498 1502 1507 1513 1520 1525 1529 1532 1536
1394 1401 1407 1414 1419 1423 1428 1432 1437 1440 1445 1448 1451 1454 1458 1462 1466 1470 1473 1478 1483 1488 1491 1496 1501 1506 1512 1517 1522 1526 1529 1534
1389 1397 1404 1410 1413 1417 1423 1428 1433 1437 1441 1445 1449 1453 1457 1459 1463 1468 1472 1476 1480 1484 1490 1494 1499 1504 1509 1515 1519 1523 1527 1529
1385 1392 1398 1404 1408 1413 1419 1423 1428 1433 1437 1441 1445 1450 1453 1458 1462 1464 1468 1471 1476 1482 1486 1491 1497 1501 1506 1510 1515 1519 1522 1526
1383 1389 1394 1399 1403 1407 1413 1420 1424 1429 1433 1438 1442 1446 1449 1453 1458 1461 1465 1470 1474 1479 1483 1488 1494 1499 1504 1508 1511 1514 1518 1520
1380 1384 1389 1394 1398 1403 1410 1416 1420 1424 1429 1433 1437 1442 1446 1450 1455 1457 1461 1465 1471 1475 1479 1484 1489 1494 1499 1503 1506 1509 1511 1514
1380 1383 1388 1392 1397 1400 1405 1411 1415 1420 1424 1429 1434 1437 1441 1446 1449 1453 1457 1461 1465 1469 1473 1478 1482 1487 1491 1495 1498 1501 1503 1506
1382 1384 1388 1391 1394 1398 1402 1408 1412 1415 1421 1424 1429 1433 1436 1439 1443 1447 1451 1455 1459 1463 1466 1471 1475 1479 1483 1486 1489 1492 1495 1497
1386 1386 1387 1390 1393 1396 1399 1403 1407 1411 1415 1420 1423 1427 1430 1432 1436 1440 1444 1447 1450 1455 1458 1460 1465 1469 1472 1476 1480 1484 1486 1488
1390 1390 1391 1391 1390 1392 1395 1398 1402 1406 1409 1413 1416 1419 1422 1426 1430 1433 1436 1439 1443 1444 1447 1451 1454 1459 1463 1466 1469 1472 1475 1477
1392 1396 1397 1396 1399 1400 1396 1394 1397 1401 1404 1405 1406 1412 1417 1421 1424 1426 1430 1432 1433 1437 1440 1442 1445 1447 1450 1454 1458 1461 1463 1466
1395 1395 1397 1396 1397 1398 1397 1400 1396 1396 1399 1401 1403 1403 1407 1410 1415 1418 1422 1423 1426 1429 1429 1432 1435 1436 1437 1442 1448 1451 1454 1456
1395 1397 1398 1398 1397 1396 1398 1398 1396 1394 1394 1396 1399 1400 1399 1401 1406 1410 1411 1414 1420 1420 1423 1427 1426 1428 1430 1434 1438 1442 1444 1445
1397 1398 1399 1399 1396 1395 1395 1395 1395 1393 1394 1393 1392 1394 1395 1398 1400 1400 1403 1407 1409 1412 1414 1415 1419 1419 1422 1427 1431 1435 1435 1435